Regional Weather Roundup
Issued by NWS Little Rock, AR

Home | Current Version | Previous Version | Text Only | Print | Product List | Glossary Off
Versions: 1 2 3 4 5 6 7 8 9 10 11 12 13 14 15 16 17 18 19 20 21 22 23 24 25 26 27

000
ASUS44 KLZK 291805
RWRLZK

WEATHER ROUNDUP FOR ARKANSAS
NATIONAL WEATHER SERVICE LITTLE ROCK AR
100 PM CDT SUN MAY 29 2016

NOTE: "FAIR" INDICATES FEW OR NO CLOUDS BELOW 12,000 FEET WITH NO
SIGNIFICANT WEATHER AND/OR OBSTRUCTIONS TO VISIBILITY.

ARZ001-003-010-029-291900-
NORTHWEST ARKANSAS

CITY           SKY/WX    TMP DP  RH WIND       PRES   REMARKS
FAYETTEVILLE   CLOUDY    80  67  64 CALM      30.16F
6HR MIN TEMP:  60; 6HR MAX TEMP:  81;

FORT SMITH     CLOUDY    84  66  54 CALM      30.12F HX  86
6HR MIN TEMP:  68; 6HR MAX TEMP:  84;

HARRISON       MOSUNNY   80  64  58 CALM      30.17F
6HR MIN TEMP:  65; 6HR MAX TEMP:  81;

BENTONVILLE    CLOUDY    81  61  50 W3        30.17S
6HR MIN TEMP:  64; 6HR MAX TEMP:  82;

ROGERS         MOSUNNY   80  66  62 N3        30.17S
6HR MIN TEMP:  65; 6HR MAX TEMP:  83;

SILOAM SPGS    CLOUDY    81  64  57 S9        30.17S
6HR MIN TEMP:  63; 6HR MAX TEMP:  81;

HIGHFILL       CLOUDY    81  68  64 S6        30.15F
6HR MIN TEMP:  63; 6HR MAX TEMP:  82;

SPRINGDALE     MOSUNNY   81  66  61 SW3       30.18F
$$

ARZ004-005-016-291900-
NORTH CENTRAL ARKANSAS

CITY           SKY/WX    TMP DP  RH WIND       PRES   REMARKS
BATESVILLE     PTSUNNY   82  66  57 CALM      30.12F HX  85
6HR MIN TEMP:  66; 6HR MAX TEMP:  84;

FLIPPIN        PTSUNNY  N/A N/A N/A NE3       30.12S
MTN HOME       MOSUNNY   80  63  55 W6        30.14F
6HR MIN TEMP:  67; 6HR MAX TEMP:  81;

$$

ARZ040-041-291900-
WEST CENTRAL ARKANSAS

CITY           SKY/WX    TMP DP  RH WIND       PRES   REMARKS
MENA           PTSUNNY   88  73  62 SW5       30.13F HX  96
MOUNT IDA      MOSUNNY   86  72  62 CALM      30.11F HX  92
6HR MIN TEMP:  64; 6HR MAX TEMP:  86;

$$

ARZ009-017-025-026-028-291900-
NORTHEAST ARKANSAS

CITY           SKY/WX    TMP DP  RH WIND       PRES   REMARKS
CORNING        LGT RAIN  84  68  58 CALM      30.11F HX  87
JONESBORO      CLOUDY    82  70  66 CALM      30.10F HX  86
6HR MIN TEMP:  68; 6HR MAX TEMP:  85;

NEWPORT        MOSUNNY   84  67  56 CALM      30.12F HX  86
6HR MIN TEMP:  69; 6HR MAX TEMP:  85;

WALNUT RIDGE   MOSUNNY   82  66  57 CALM      30.11F HX  85
6HR MIN TEMP:  68; 6HR MAX TEMP:  82;

BLYTHEVILLE    SUNNY     84  70  62 S6        30.10F HX  88
6HR MIN TEMP:  70; 6HR MAX TEMP:  84;

$$

ARZ022-023-033-042-044-291900-
CENTRAL ARKANSAS

CITY           SKY/WX    TMP DP  RH WIND       PRES   REMARKS
LITTLE ROCK    PTSUNNY   87  67  51 CALM      30.11F HX  90
6HR MIN TEMP:  69; 6HR MAX TEMP:  89;

N LITTLE ROCK    N/A     84  69  58 CALM      30.10F HX  88
6HR MIN TEMP:  69; 6HR MAX TEMP:  85;

SEARCY         MOSUNNY   86  70  58 CALM      30.13F HX  90
6HR MIN TEMP:  67; 6HR MAX TEMP:  86;

HOT SPRINGS    CLOUDY    85  71  63 CALM      30.12F HX  90
6HR MIN TEMP:  67; 6HR MAX TEMP:  85;

RUSSELLVILLE   MOSUNNY   84  69  60 W6        30.12F HX  88
6HR MIN TEMP:  67; 6HR MAX TEMP:  84;

CLINTON        PTSUNNY   84  68  58 NW3       30.13S HX  87
$$

ARZ036-291900-
EAST ARKANSAS

CITY           SKY/WX    TMP DP  RH WIND       PRES   REMARKS
WEST MEMPHIS   MOSUNNY   84  70  62 CALM      30.09F HX  88
6HR MIN TEMP:  70; 6HR MAX TEMP:  84;

$$

ARZ050-053-066-070-073-291900-
SOUTHWEST ARKANSAS

CITY           SKY/WX    TMP DP  RH WIND       PRES   REMARKS
ARKADELPHIA    FAIR      87  73  62 CALM      30.11F HX  94
6HR MIN TEMP:  66; 6HR MAX TEMP:  87;

CAMDEN         MOSUNNY   88  70  55 CALM      30.11F HX  92
TEXARKANA      CLOUDY    87  72  60 W3        30.13S HX  93
6HR MIN TEMP:  71; 6HR MAX TEMP:  87;

EL DORADO      MOSUNNY   86  70  58 CALM      30.12F HX  90
6HR MIN TEMP:  67; 6HR MAX TEMP:  89;

DE QUEEN       CLOUDY    85  75  72 CALM      30.10F HX  93
6HR MIN TEMP:  66; 6HR MAX TEMP:  85;

$$

ARZ056-057-069-291900-
SOUTHEAST ARKANSAS

CITY           SKY/WX    TMP DP  RH WIND       PRES   REMARKS
PINE BLUFF     PTSUNNY   86  72  62 E5        30.12F HX  92
6HR MIN TEMP:  69; 6HR MAX TEMP:  86;

STUTTGART      SUNNY     84  64  51 CALM      30.12F HX  86
6HR MIN TEMP:  72; 6HR MAX TEMP:  84;

MONTICELLO     PTSUNNY   88  72  58 CALM      30.12F HX  94
6HR MIN TEMP:  68; 6HR MAX TEMP:  88;


$$






USA.gov is the U.S. government's official web portal to all federal, state and local government web resources and services.